Weather History for KLYH - August, 2014

Change the Weather History Date:

Tuesday, August 12, 2014

  Actual Average Record
Temperature  
Mean Temperature 74 °F 75 °F  
Max Temperature 81 °F 86 °F 98 °F (1900)
Min Temperature 67 °F 64 °F 49 °F (2008)
Degree Days  
Heating Degree Days 0 0  
Month to date heating degree days 0 0  
Since 1 June heating degree days 1 15  
Since 1 July heating degree days 0 1  
Cooling Degree Days 9 10  
Month to date cooling degree days 69 120  
Year to date cooling degree days 728 734  
Since 1 June cooling degree days 614 652  
Growing Degree Days 23 (Base 50)    
Moisture  
Dew Point 70 °F    
Average Humidity 87    
Maximum Humidity 100    
Minimum Humidity 74    
Precipitation  
Precipitation 0.31 in 0.09 in 2.07 in (1901)
Month to date precipitation 3.45 1.31  
Year to date precipitation 32.66 25.98  
Snow  
Snow 0.00 in - - ()
Month to date snowfall 0.0  
Since 1 June snowfall 0.0  
Since 1 July snowfall 0.0  
Snow Depth 0.00 in    
Sea Level Pressure  
Sea Level Pressure 29.88 in    
Wind  
Wind Speed 1 mph (SSW)    
Max Wind Speed 14 mph    
Max Gust Speed 23 mph    
Visibility 6 miles    
Events Rain    
T = Trace of Precipitation, MM = Missing Value Source: NWS Daily Summary

Daily Weather History Graph

Daily Weather History Graph

Search for Another Location

Airport or City:

Trip Planner

Search our weather history database for the weather conditions in past years. The results will help you decide how hot, cold, wet, or windy it might be!

Date:

Astronomy

Aug. 12, 2014 Rise Set
Actual Time 6:30 AM EDT 8:12 PM EDT
Civil Twilight 6:02 AM EDT 8:40 PM EDT
Nautical Twilight 5:28 AM EDT 9:14 PM EDT
Astronomical Twilight 4:52 AM EDT 9:49 PM EDT
Moon 9:23 PM EDT (8/12) 8:41 AM EDT (8/12)
Length of Visible Light 14h 37m
Length of Day
13h 41m
Waning Gibbous, 95% of the Moon is Illuminated
Aug 12
Waning Gibbous
Aug 17
Last Quarter
Aug 25
New
Sep 2
First Quarter
Sep 8
Full

Hourly Weather History & Observations

Time (EDT) Temp. Heat Index Dew Point Humidity Pressure Visibility Wind Dir Wind Speed Gust Speed Precip Events Conditions
12:54 AM 66.9 °F - 64.9 °F 93% 30.00 in 10.0 mi Calm Calm - N/A   Overcast
1:10 AM 66.2 °F - 66.2 °F 100% 30.02 in 3.0 mi East 3.5 mph - 0.03 in Rain Heavy Rain
1:32 AM 66.2 °F - 66.2 °F 100% 30.01 in 10.0 mi NW 4.6 mph - 0.08 in   Overcast
1:54 AM 66.9 °F - 66.9 °F 100% 29.98 in 4.0 mi Calm Calm - 0.11 in Rain Rain
2:54 AM 66.9 °F - 66.9 °F 100% 29.96 in 10.0 mi Calm Calm - 0.03 in   Overcast
3:54 AM 68.0 °F - 66.9 °F 96% 29.95 in 9.0 mi Calm Calm - 0.00 in Rain Light Rain
4:29 AM 66.2 °F - 66.2 °F 100% 29.96 in 10.0 mi Calm Calm - 0.00 in   Overcast
4:54 AM 68.0 °F - 66.9 °F 96% 29.93 in 9.0 mi Calm Calm - 0.00 in Rain Light Rain
5:00 AM 68.0 °F - 66.2 °F 94% 29.95 in 10.0 mi Calm Calm - 0.00 in Rain Light Rain
5:27 AM 68.0 °F - 66.2 °F 94% 29.95 in 10.0 mi Calm Calm - 0.01 in   Overcast
5:54 AM 68.0 °F - 66.9 °F 96% 29.93 in 5.0 mi Calm Calm - 0.02 in Rain Light Rain
6:54 AM 68.0 °F - 66.9 °F 96% 29.92 in 3.0 mi Calm Calm - 0.03 in Rain Light Rain
7:54 AM 68.0 °F - 66.9 °F 96% 29.92 in 3.0 mi Calm Calm - 0.00 in Rain Light Rain
8:54 AM 68.0 °F - 68.0 °F 100% 29.91 in 1.0 mi Calm Calm - 0.02 in   Overcast
9:01 AM 68.0 °F - 68.0 °F 100% 29.94 in 3.0 mi Calm Calm - 0.01 in   Overcast
9:27 AM 68.0 °F - 68.0 °F 100% 29.94 in 1.0 mi Calm Calm - 0.01 in   Overcast
9:54 AM 69.1 °F - 68.0 °F 96% 29.91 in 1.0 mi Calm Calm - 0.01 in   Overcast
9:57 AM 69.8 °F - 68.0 °F 94% 29.93 in 2.0 mi Calm Calm - N/A   Overcast
10:17 AM 69.8 °F - 68.0 °F 94% 29.93 in 1.0 mi Calm Calm - N/A   Overcast
10:54 AM 70.0 °F - 68.0 °F 93% 29.90 in 1.0 mi Calm Calm - N/A   Overcast
11:01 AM 69.8 °F - 69.8 °F 100% 29.93 in 1.5 mi Calm Calm - N/A   Overcast
11:54 AM 71.1 °F - 69.1 °F 93% 29.90 in 1.5 mi Calm Calm - N/A   Overcast
1:54 PM 73.9 °F - 71.1 °F 91% 29.87 in 10.0 mi SSW 4.6 mph - N/A   Overcast
2:26 PM 73.4 °F - 71.6 °F 94% 29.88 in 10.0 mi SSW 4.6 mph - N/A   Overcast
2:33 PM 73.4 °F - 71.6 °F 94% 29.88 in 10.0 mi South 4.6 mph - N/A   Overcast
2:54 PM 73.9 °F - 71.1 °F 91% 29.84 in 10.0 mi Calm Calm - N/A   Overcast
3:07 PM 73.4 °F - 71.6 °F 94% 29.87 in 10.0 mi Calm Calm - N/A   Overcast
3:14 PM 75.2 °F - 71.6 °F 89% 29.86 in 10.0 mi Calm Calm - N/A   Overcast
3:38 PM 75.2 °F - 71.6 °F 89% 29.85 in 10.0 mi Calm Calm - N/A   Mostly Cloudy
3:45 PM 77.0 °F - 71.6 °F 83% 29.85 in 10.0 mi Calm Calm - N/A   Mostly Cloudy
3:54 PM 78.1 °F - 71.1 °F 79% 29.81 in 10.0 mi Calm Calm - N/A   Mostly Cloudy
4:54 PM 78.1 °F - 71.1 °F 79% 29.79 in 10.0 mi SSW 3.5 mph - N/A   Mostly Cloudy
5:26 PM 80.6 °F 84.6 °F 71.6 °F 74% 29.82 in 10.0 mi Variable 3.5 mph - N/A   Mostly Cloudy
5:54 PM 80.1 °F 83.6 °F 71.1 °F 74% 29.78 in 10.0 mi SW 5.8 mph - N/A   Scattered Clouds
6:54 PM 79.0 °F - 71.1 °F 77% 29.78 in 10.0 mi SSW 4.6 mph - N/A   Partly Cloudy
7:54 PM 73.9 °F - 73.0 °F 97% 29.79 in 10.0 mi Calm Calm - N/A   Partly Cloudy
8:39 PM 75.2 °F - 73.4 °F 94% 29.83 in 10.0 mi Calm Calm - N/A   Mostly Cloudy
8:51 PM 75.2 °F - 73.4 °F 94% 29.83 in 10.0 mi South 3.5 mph - N/A   Mostly Cloudy
8:54 PM 75.0 °F - 73.0 °F 94% 29.80 in 10.0 mi South 4.6 mph - N/A   Mostly Cloudy
9:27 PM 73.4 °F - 73.4 °F 100% 29.83 in 10.0 mi South 4.6 mph - N/A   Mostly Cloudy
9:54 PM 73.9 °F - 73.0 °F 97% 29.82 in 9.0 mi Calm Calm - N/A   Mostly Cloudy
10:02 PM 73.4 °F - 71.6 °F 94% 29.84 in 7.0 mi Calm Calm - N/A   Scattered Clouds
10:07 PM 71.6 °F - 71.6 °F 100% 29.85 in 1.5 mi Calm Calm - N/A   Partly Cloudy
10:14 PM 73.4 °F - 71.6 °F 94% 29.85 in 1.2 mi Calm Calm - N/A   Clear
10:16 PM 73.4 °F - 71.6 °F 94% 29.85 in 2.0 mi Calm Calm - N/A   Clear
10:23 PM 71.6 °F - 71.6 °F 100% 29.85 in 6.0 mi Calm Calm - N/A   Clear
10:35 PM 71.6 °F - 71.6 °F 100% 29.84 in 1.8 mi SSE 4.6 mph - N/A   Clear
10:38 PM 71.6 °F - 71.6 °F 100% 29.84 in 1.2 mi SSE 3.5 mph - N/A   Partly Cloudy
10:47 PM 71.6 °F - 71.6 °F 100% 29.84 in 0.8 mi Calm Calm - N/A   Mist
10:54 PM 71.1 °F - 71.1 °F 100% 29.82 in 0.8 mi Calm Calm - N/A   Mostly Cloudy
10:59 PM 71.6 °F - 71.6 °F 100% 29.85 in 1.8 mi Calm Calm - N/A   Mostly Cloudy
11:01 PM 71.6 °F - 71.6 °F 100% 29.85 in 3.0 mi WNW 3.5 mph - N/A   Mostly Cloudy
11:16 PM 71.6 °F - 68.0 °F 88% 29.87 in 9.0 mi WNW 10.4 mph 23.0 mph N/A   Overcast
11:26 PM 69.8 °F - 66.2 °F 88% 29.87 in 10.0 mi NW 8.1 mph 17.3 mph N/A   Overcast
11:54 PM 69.1 °F - 66.9 °F 93% 29.86 in 10.0 mi Calm Calm - 0.00 in Rain Light Rain